Regional Weather Roundup
Issued by NWS

Home | Current Version | Previous Version | Text Only | Print | Product List | Glossary Off
Versions: 1 2 3 4 5 6 7 8 9 10 11 12 13 14 15 16 17 18 19 20 21 22 23 24 25 26 27 28 29 30 31 32 33 34 35 36 37 38 39 40 41 42 43 44 45 46 47 48 49 50

000
ASUS43 KIND 011459
RWRIN

WEATHER ROUNDUP FOR INDIANA
NATIONAL WEATHER SERVICE INDIANAPOLIS IN
1100 AM EDT WED OCT 01 2014

NOTE: "FAIR" INDICATES FEW OR NO CLOUDS BELOW 12,000 FEET WITH NO
SIGNIFICANT WEATHER AND/OR OBSTRUCTIONS TO VISIBILITY.

* - STATION DOES NOT REPORT WEATHER SUCH AS PRECIPITATION OR FOG.

+ - STATION NOT QUALITY CONTROLLED BY THE NATIONAL WEATHER SERVICE.
    USE DATA WITH CAUTION...ESPECIALLY DEWPOINT AND RELATIVE
    HUMIDITY OBSERVATIONS.

INZ001>003-010>013-019-020-011600-
NORTHWEST INDIANA

CITY           SKY/WX    TMP DP  RH WIND       PRES   REMARKS
GARY /AIRPORT/ MOSUNNY   59  50  72 SE7       30.04S
KNOX *+        PTSUNNY   56  49  78 SE7       30.04S
VALPARAISO     NOT AVBL

$$

LMZ046-743>745-011600-
SOUTHERN LAKE MICHIGAN

STATION/POSITION TIME  TEMP WIND        PRES
                       AIR  DIR/SP/G
                 (UTC) (F)  (DEG/KT/KT) (MB)
MICHIGAN CITY    1400   54  120/  8/ 11   N/A

$$

INZ004-005-014>016-021>024-011600-
NORTH CENTRAL INDIANA

CITY           SKY/WX    TMP DP  RH WIND       PRES   REMARKS
ELKHART        CLOUDY    55  48  76 SE7       30.07R
GOSHEN         CLOUDY    55  49  80 SE8       30.07R
SOUTH BEND     CLOUDY    57  48  72 SE10      30.06S
WARSAW +       PTSUNNY   55  50  82 SE9       30.06S

$$

INZ006>009-017-018-025>027-011600-
NORTHEAST INDIANA

CITY           SKY/WX    TMP DP  RH WIND       PRES   REMARKS
ANGOLA *+      CLOUDY    55  48  76 SE5       30.07R
FORT WAYNE     PTSUNNY   56  51  84 SE7       30.07S

$$

INZ028-029-035-036-043>045-051>053-011600-
WEST CENTRAL INDIANA

CITY           SKY/WX    TMP DP  RH WIND       PRES   REMARKS
GREENCASTLE +  SUNNY     61  52  72 SE7       30.03R
LAFAYETTE      SUNNY     57  51  80 E6        30.03R
TERRE HAUTE    SUNNY     63  54  72 SE5       30.01R

$$

INZ030>032-037>040-046>048-054>057-064-065-011600-
CENTRAL INDIANA

CITY           SKY/WX    TMP DP  RH WIND       PRES   REMARKS
ANDERSON       CLOUDY    54  54 100 SE12      30.06S FOG
FRANKFORT +    SUNNY     59  52  77 SE9       30.04S
INDIANAPOLIS   MOSUNNY   59  51  75 SE6       30.02S
-EAGLE CREEK   SUNNY     60  51  72 E6        30.03R
KOKOMO *+      CLOUDY    52  48  87 SE7       30.06S
MT COMFORT *+  SUNNY     61  48  63 SE5       30.04S
SHELBYVILLE    SUNNY     63  52  67 E7        30.03S
ZIONSVILLE +   SUNNY     59  51  75 SE5       30.04S

$$

INZ033-034-041-042-049-050-058-059-011600-
EAST CENTRAL INDIANA

CITY           SKY/WX    TMP DP  RH WIND       PRES   REMARKS
MUNCIE         CLOUDY    52  51  97 SE5       30.06R

$$

INZ060-061-067>069-081>083-085>088-011600-
SOUTHWEST INDIANA

CITY           SKY/WX    TMP DP  RH WIND       PRES   REMARKS
EVANSVILLE     PTSUNNY   70  61  73 SE5       29.99R

$$

INZ062-063-066-070>080-084-089>092-011600-
SOUTH CENTRAL AND SOUTHEAST INDIANA

CITY           SKY/WX    TMP DP  RH WIND       PRES   REMARKS
BLOOMINGTON    SUNNY     62  54  74 SE6       30.02R

$$



USA.gov is the U.S. government's official web portal to all federal, state and local government web resources and services.